Location: Spring Creek
(38.2870°N, 100.2160°W)
Time: 22:52:22
(UTC+00:00)

CZ-4C R/B - Pass Details

Date: 08 May 2021
Orbit: 609 x 1393 km, 63.4° (Epoch: 20 June)

Event Time Altitude Azimuth Distance (km) Brightness Sun altitude
Rises 03:05:19 0° 335° (NNW) 3,778 6.7 -15.6°
Reaches altitude 10° 03:08:31 10° 350° (N) 2,960 5.7 -16.1°
Maximum altitude 03:13:57 22° 39° (NE) 2,368 4.5 -16.9°
Enters shadow 03:19:32 11° 85° (E) 3,225 4.8 -17.8°
